Location: Poughquag
(41.6090°N, 73.6820°W)
Time: 16:28:47
(UTC-05:00)

Envisat - Pass Details

Date: 20 January 2020
Orbit: 764 x 766 km, 98.1° (Epoch: 24 February)

Event Time Altitude Azimuth Distance (km) Brightness Sun altitude
Rises 05:58:34 0° 21° (NNE) 3,241 6.3 -14.5°
Reaches altitude 10° 06:01:04 10° 30° (NNE) 2,309 5.7 -14.1°
Maximum altitude 06:05:44 36° 97° (E) 1,201 4.7 -13.2°
Drops below altitude 10° 06:10:22 10° 163° (SSE) 2,293 5.9 -12.4°
Sets 06:12:50 0° 172° (S) 3,214 6.6 -11.9°
